Location: Seattle
(47.6064°N, 122.3308°W)
Time: 05:11:51
(UTC-08:00)

S-56A Canister/Altair - Pass Details

Date: 05 December 2020
Orbit: 633 x 2499 km, 38.9° (Epoch: 23 January)

Event Time Altitude Azimuth Distance (km) Brightness Sun altitude
Rises 21:58:21 0° 274° (W) 5,370 12.3 -55.0°
Reaches altitude 10° 22:02:41 10° 267° (W) 4,065 11.5 -55.6°
Enters shadow 22:05:03 17° 260° (W) 3,372 10.9 -56.0°
Maximum altitude 22:11:22 33° 209° (SSW) 2,059 - -56.8°
Drops below altitude 10° 22:17:30 10° 147° (SSE) 2,826 - -57.6°
Sets 22:19:59 0° 137° (SE) 3,568 - -57.9°
